Location: Centerville
(32.8776°N, 96.6203°W)
Time: 05:44:24
(UTC+00:00)

Cosmos 1241 Rocket - Pass Details

Date: 17 June 2021
Orbit: 933 x 1014 km, 65.8° (Epoch: 29 July)

Event Time Altitude Azimuth Distance (km) Brightness Sun altitude
Rises 02:41:42 0° 332° (NNW) 3,695 8.9 -12.2°
Reaches altitude 10° 02:44:18 10° 333° (NNW) 2,732 8.0 -12.6°
Maximum altitude 02:50:42 90° 250° (WSW) 967 4.5 -13.6°
Enters shadow 02:55:38 17° 155° (SSE) 2,191 5.8 -14.4°
